Location: Brenthaven North
(35.9915°N, 86.7950°W)
Time: 00:45:36
(UTC+00:00)

Daily predictions for brighter satellites

Satellite Brightness Start Highest point End
(mag) Time Altitude Azimuth Time Altitude Azimuth Time Altitude Azimuth
USA 234 4.2 00:03:44 10° ENE 00:08:58 25° ESE 00:14:13 10° S
COSMO-SKYMED 1 3.3 00:05:19 10° N 00:09:37 62° WNW 00:13:53 10° SSW
CZ-4 R/B 4.4 00:06:47 10° SSE 00:10:52 75° ENE 00:14:59 10° N
ISS -3.7 00:11:57 10° SW 00:15:15 61° SE 00:18:35 10° NE
H-2A R/B 2.7 00:15:58 10° SE 00:20:15 31° ENE 00:24:38 10° N
Cosmos 158 Rocket 3.9 00:16:46 10° NNW 00:22:01 73° ENE 00:27:05 10° SSE
Iridium 4 Rocket 3.4 00:19:01 10° S 00:23:44 73° E 00:28:56 10° N
ARGOS 4.1 00:19:43 10° SE 00:24:09 27° ENE 00:28:36 10° NNE
Cosmos 1437 3.4 00:26:18 10° NNE 00:29:00 30° ENE 00:31:41 10° SE
SJ 16-02 3.5 00:25:24 10° SW 00:29:17 31° WNW 00:33:12 10° N
DMSP B5D1-3 4.5 00:24:44 10° NNE 00:29:49 71° ESE 00:34:53 10° S
Cosmos 1939 Rocket 4.1 00:28:44 10° S 00:32:42 48° W 00:36:43 10° NNW
CZ-2C R/B 3.7 00:28:23 10° NE 00:32:45 23° E 00:37:08 10° SSE
Milstar 3 Cent rocket 3.9 00:27:53 10° SW 00:33:33 22° SSE 00:37:15 11° ESE
Helios 1A Rocket 4.2 00:29:49 10° S 00:33:44 45° W 00:37:42 10° NNW
Cosmos 1378 Rocket 4.5 00:30:48 10° NNW 00:34:59 52° W 00:39:09 10° S
SL-16 R/B 4.0 00:29:56 10° NW 00:34:59 34° WSW 00:40:02 10° SSW
NOSS 2-2 (E) 3.1 00:31:55 10° SW 00:35:25 79° WNW 00:39:03 10° NNE
Okean 2 Rocket 4.0 00:31:59 10° SSE 00:35:47 28° E 00:39:36 10° NNE
CZ-2D R/B 4.2 00:35:28 10° S 00:39:14 52° W 00:43:03 10° NNW
Cosmos 2263 Rocket 2.8 00:34:13 10° SSW 00:39:41 60° WNW 00:45:12 10° NNE
Okean-O 3.3 00:35:21 10° S 00:39:42 59° W 00:44:05 10° NNW
Cosmos 1900 4.5 00:34:33 10° NNW 00:39:45 87° WSW 00:44:52 10° SSE
ATLAS 2AS CENTAUR R/B 4.3 00:36:16 10° SE 00:39:51 14° ESE 00:40:32 14° E
HJ-1C 3.6 00:38:15 10° SSE 00:41:24 46° ENE 00:44:35 10° N
SJ-11-01 4.4 00:37:13 10° SSE 00:41:50 56° ENE 00:46:26 10° N
DELTA 2 R/B (1) 3.6 00:37:00 10° WNW 00:42:34 74° NNE 00:46:52 17° E
Meteor 2-9 Rocket 4.4 00:37:07 10° S 00:42:59 82° W 00:48:50 10° N
NOSS 2-2 (D) 3.0 00:40:24 10° SSW 00:43:56 84° NW 00:47:33 10° NNE
CZ-2C R/B 3.0 00:39:41 10° SSE 00:44:47 76° ENE 00:50:13 10° N
Cosmos 1844 Rocket 3.4 00:42:21 10° SSE 00:46:59 28° ESE 00:51:39 10° NE
Cosmos 1300 Rocket 4.1 00:43:48 10° SSE 00:47:48 36° E 00:51:50 10° NNE
Ariane Rocket 3.9 00:50:37 18° ESE 00:53:20 29° ENE 00:57:40 10° N
YAOGAN 1 3.2 00:49:25 10° S 00:53:39 57° W 00:57:55 10° NNW
USA 186 3.1 00:54:52 22° ENE 00:54:52 22° ENE 00:57:03 10° NNE
Exosat Rocket 4.5 00:54:01 10° SSE 00:59:19 29° ESE 01:03:46 10° NE
Cosmos 1943 3.1 00:55:15 10° NNW 01:00:55 80° ENE 01:06:35 10° SSE
Cosmos 1464 Rocket 3.9 00:55:15 10° S 01:01:15 62° E 01:07:19 10° NNE
Okean 2 4.2 00:57:51 10° NNW 01:01:56 54° W 01:05:58 10° S
Cosmos 2298 Rocket 4.2 00:57:09 10° S 01:02:15 49° ESE 01:07:23 10° NNE
Meteor 1-12 Rocket 4.3 00:57:24 10° S 01:03:16 65° E 01:09:04 10° NNE
CSL-04 Debris 4.5 01:01:48 10° S 01:07:09 69° WSW 01:12:32 10° NNW
Cosmos 1536 Rocket 4.5 01:06:09 10° NNE 01:09:59 29° ENE 01:09:59 29° ENE
CZ-4 R/B 3.7 01:07:48 10° SSW 01:11:25 27° W 01:15:03 10° NW
CSL-04 Rocket 4.2 01:11:14 10° S 01:16:31 59° W 01:21:55 10° NNW
Cosmos 2151 Rocket 3.6 01:12:37 10° S 01:16:57 58° E 01:21:20 10° NNE
Cosmos 1867 3.8 01:14:19 10° NNW 01:19:37 50° ENE 01:21:23 36° ESE
Cosmos 1603 4.2 01:15:03 10° NNW 01:20:35 58° WSW 01:26:03 10° S
CZ-2C R/B 0.6 01:18:24 10° W 01:21:56 76° S 01:22:04 73° SSE
Cosmos 1025 Rocket 3.1 01:18:42 10° N 01:23:01 55° E 01:23:50 47° ESE
USA 102 4.3 01:22:50 48° S 01:24:15 79° WSW 01:30:17 10° NNW
Cosmos 2150 Rocket 4.0 01:26:53 10° SSW 01:32:13 88° ESE 01:37:40 10° NNE
DMSP B5D2-2 3.9 01:28:00 10° NNE 01:33:18 74° ESE 01:38:34 10° S
BREEZE-M DEB (TANK) 3.8 01:36:07 10° NW 01:39:49 53° NE 01:42:24 37° E
Cosmos 1125 Rocket 3.4 01:37:07 10° S 01:42:22 71° ESE 01:47:40 10° NNE
SJ-6B 3.3 01:44:19 50° N 01:44:19 50° N 01:47:09 10° N
Cosmos 1707 3.6 01:41:34 10° NNW 01:45:15 46° W 01:46:33 32° SW
Resurs 01 Rocket 3.6 01:49:35 18° NNE 01:49:35 18° NNE 01:50:57 10° NNE
USA 234 3.4 01:45:45 10° NE 01:52:17 75° NW 01:58:48 10° SW
ISS -1.1 01:50:03 10° WNW 01:52:20 17° NNW 01:53:13 15° N
Cosmos 2034 Rocket 4.4 01:52:03 10° SSW 01:58:21 64° W 02:04:41 10° N
H-2A R/B 4.0 01:55:40 10° SSW 01:59:40 25° W 02:03:43 10° NW
Nadezhda 4 Rocket 3.9 01:54:50 10° N 02:00:58 81° W 02:03:09 43° S
NOSS 3-2 (C) 4.5 02:00:30 10° NNW 02:07:50 45° NE 02:08:32 44° ENE
CZ-2C R/B 3.9 02:07:56 10° N 02:13:06 41° WNW 02:18:19 10° SW
Cosmos 1048 Rocket 4.3 02:10:46 10° NNW 02:15:16 64° NNW 02:15:16 64° NNW
Cosmos 1844 4.3 02:13:55 10° SW 02:19:30 55° WNW 02:25:04 10° NNE
ATLAS 2AS CENTAUR R/B 3.0 02:21:51 10° SSW 02:33:18 37° NE 02:37:40 10° NNE
Cosmos 1844 Rocket 4.1 02:25:41 10° SW 02:30:42 34° WNW 02:35:45 10° N
Cosmos 1634 Rocket 4.3 02:32:53 59° NNW 02:32:53 59° NNW 02:37:53 10° N
CENTAUR R/B 3.2 02:39:30 10° NNW 02:47:17 70° NNE 02:47:17 70° NNE
ATLAS 3B R/B 4.2 02:47:55 10° N 02:51:46 24° NNE 02:51:46 24° NNE
USA 238 DEB 4.1 02:49:07 10° NW 02:55:26 64° WNW 02:55:26 64° WNW
USA 238 4.1 02:49:12 10° NW 02:55:30 64° WNW 02:55:30 64° WNW
Lacrosse 5 4.4 08:09:35 18° NE 08:09:35 18° NE 08:10:48 10° NE
USA 267 4.3 08:00:18 10° NE 08:04:18 39° NNE 08:04:18 39° NNE
ADEOS II 4.3 08:20:55 10° N 08:22:11 18° N 08:22:11 18° N
IDEFIX/ARIANE 42P 3.9 08:33:30 10° NNE 08:36:52 37° NE 08:36:52 37° NE
ARIANE 5 R/B 4.1 08:40:44 10° NNE 08:43:09 29° NNE 08:43:09 29° NNE
SJ 16-02 4.5 08:57:57 10° NNE 09:00:11 14° ENE 09:02:25 10° E
H-2A R/B 4.0 08:58:37 10° SE 09:02:19 28° ENE 09:06:05 10° N
Cosmos 1812 4.4 09:12:50 31° E 09:12:50 31° E 09:16:13 10° NNE
ASTEX 1 4.1 09:10:49 10° N 09:14:18 45° N 09:14:18 45° N
BREEZE-M DEB (TANK) 3.8 09:13:55 50° SW 09:16:23 81° SSE 09:20:37 10° ENE
Cosmos 1697 Rocket 4.0 09:19:35 27° NNW 09:19:35 27° NNW 09:22:56 10° N
CZ-2C R/B 3.6 09:14:30 10° NNE 09:19:22 42° E 09:23:04 17° SSE
ERBS 4.5 09:21:44 26° ENE 09:21:44 26° ENE 09:23:22 10° NE
SL-4 R/B 3.7 09:19:51 29° SE 09:20:13 29° SE 09:24:17 10° ENE
COSMOS 2441 4.3 09:15:56 10° NNE 09:20:38 81° NNE 09:20:38 81° NNE
Cosmos 1980 Rocket 2.4 09:22:31 55° NW 09:22:31 55° NW 09:27:35 10° NNE
PAYLOAD A 4.4 09:20:31 10° NNE 09:25:06 53° E 09:26:52 34° SSE
Cosmos 1339 Rocket 4.5 09:22:54 31° S 09:26:06 82° E 09:32:22 10° N
Cosmos 2322 Rocket 3.7 09:22:46 10° SSE 09:27:44 33° ESE 09:32:44 10° NE
Landsat 5 4.2 09:23:44 10° SSE 09:28:09 59° ENE 09:32:35 10° N
SL-16 R/B 3.0 09:31:24 17° S 09:35:28 48° ESE 09:40:54 10° NNE
Cosmos 2263 Rocket 3.6 09:30:27 10° N 09:35:43 38° ENE 09:40:57 10° SE
Chandra Rocket (1) 4.4 09:31:38 33° WSW 09:38:26 50° SSW 09:44:33 10° SE
Meteor 1-14 Rocket 4.0 09:36:02 10° NNW 09:41:36 72° W 09:47:05 10° S
CZ-2C R/B 4.4 09:38:25 10° N 09:40:05 23° NNW 09:40:05 23° NNW
NOSS 3-3 (A) 3.8 09:45:00 47° WSW 09:46:27 63° NW 09:52:41 10° NNE
NOSS 3-3 (C) 3.8 09:45:10 48° WSW 09:46:35 64° NW 09:52:45 10° NNE
Lacrosse 5 3.6 09:48:47 18° NW 09:49:17 18° NNW 09:52:44 10° N
CSL-04 DEB 4.4 09:45:10 10° S 09:49:25 82° WSW 09:53:46 10° NNW
Cosmos 1238 Rocket 3.9 09:44:21 10° NNW 09:50:49 61° W 09:56:37 10° S
Meteor 2-6 Rocket 4.1 09:48:55 29° SSW 09:51:52 71° W 09:57:38 10° N
Cosmos 1707 Rocket 4.2 09:50:48 10° S 09:55:00 55° E 09:59:14 10° NNE
Cosmos 921 Rocket 3.1 09:55:09 51° WNW 09:55:09 51° WNW 09:59:11 10° N
IRIDIUM 104 4.3 09:51:35 10° N 09:56:50 84° E 10:02:03 10° S
Cosmos 44 4.2 09:58:36 28° NW 09:58:36 28° NW 10:02:26 10° N
Meteor 1-5 Rocket 4.1 09:53:38 10° N 09:58:59 85° E 10:04:24 10° S
Cosmos 2228 Rocket 3.6 10:01:20 38° WNW 10:01:20 38° WNW 10:05:16 10° N
IRIDIUM 114 4.2 10:00:45 10° N 10:05:58 79° W 10:11:11 10° S
Meteor 1-4 Rocket 2.4 10:09:30 46° SW 10:10:09 56° W 10:13:36 10° N
USA 32 4.3 10:05:08 10° N 10:10:23 70° E 10:15:36 10° S
Cosmos 1934 Rocket 4.4 10:05:35 10° NNW 10:10:59 35° W 10:16:24 10° SSW
X-37B 3.0 10:10:31 13° NNW 10:12:03 17° N 10:14:12 10° NE
ADEOS 3.7 10:08:46 10° NNE 10:14:00 79° ESE 10:19:13 10° S
IRIDIUM 103 4.3 10:09:56 10° N 10:15:05 63° W 10:20:14 10° S
Cosmos 1536 3.9 10:13:03 10° N 10:17:01 49° E 10:20:57 10° SSE
IDEFIX/ARIANE 42P 4.2 10:14:36 10° NNW 10:17:40 16° WNW 10:17:40 16° WNW
DELTA 4 R/B 4.4 10:09:17 21° W 10:18:48 39° SSW 10:23:47 10° SE
ADEOS Rocket 3.2 10:12:15 10° SSE 10:19:23 88° WSW 10:25:49 10° NNW
Cosmos 1484 Rocket 3.2 10:16:38 10° NNE 10:20:36 68° E 10:24:34 10° S
USA 234 3.2 10:14:51 10° SSE 10:21:18 65° SW 10:27:47 10° NW
Cosmos 1869 Rocket 3.7 10:19:46 10° NNW 10:23:57 48° W 10:28:04 10° SSW
ALOS 2.5 10:19:41 10° NNE 10:24:21 72° ESE 10:29:00 10° S
Meteor 1-11 Rocket 3.7 10:20:14 10° N 10:26:01 87° W 10:31:39 10° S
Cosmos 1937 Rocket 4.5 10:22:25 10° N 10:27:24 49° ENE 10:32:22 10° SE
Cosmos 1153 Rocket 4.5 10:21:24 10° NNW 10:27:45 70° W 10:33:58 10° S
Cosmos 1862 Rocket 4.0 10:24:29 10° S 10:28:50 63° E 10:33:09 10° NNE
ERS-2 2.4 10:25:48 10° S 10:29:16 41° W 10:32:45 10° NNW
Cosmos 967 Rocket 4.5 10:24:00 10° SSW 10:30:27 79° WNW 10:36:54 10° NNE
Meteor 1-31 Rocket 2.9 10:27:37 10° NNE 10:31:27 75° ESE 10:35:17 10° S
FALCON 9 DEB 3.3 10:31:12 24° WSW 10:33:01 56° NW 10:36:24 10° NE
Cosmos 841 Rocket 3.6 10:28:36 10° SSW 10:33:47 81° ESE 10:39:02 10° NNE
Meteor 1-27 Rocket 3.8 10:28:20 10° SSW 10:34:12 63° W 10:40:05 10° N
H-2A R/B 3.2 10:34:55 10° SW 10:38:14 22° W 10:41:38 10° NW
SJ 16-02 1.5 10:34:48 10° NNW 10:39:00 46° WSW 10:43:12 10° S
Cosmos 1763 Rocket 4.0 10:39:16 10° SW 10:44:15 40° WNW 10:49:14 10° N
Cosmos 1000 Rocket 4.4 10:38:44 10° SSW 10:44:56 73° W 10:51:07 10° N
Cosmos 1570 Rocket 4.0 10:41:10 10° SSW 10:46:27 79° WNW 10:51:49 10° NNE
Cosmos 1812 4.5 10:47:58 13° W 10:48:39 14° WNW 10:50:40 10° NW
Cosmos 2360 Rocket 2.2 10:50:15 10° SSW 10:55:54 80° WNW 11:01:36 10° NNE
SJ-12 3.9 10:53:06 10° NNE 10:57:15 88° W 11:01:22 10° SSW
CZ-2C R/B 3.8 10:53:30 10° NNW 10:57:16 21° WNW 11:01:04 10° WSW
CZ-4B R/B 2.0 10:55:04 10° SSW 10:57:48 29° W 11:00:37 10° NW
SL-4 R/B 2.9 10:55:28 10° WSW 10:59:47 44° NW 11:04:23 10° NE
Meteor 2-20 4.4 10:54:45 10° SSW 11:00:51 70° W 11:06:58 10° N
COSMO-SKYMED 1 2.9 10:57:07 10° SSE 11:01:25 72° ENE 11:05:45 10° N
SL-8 R/B 4.0 10:58:05 10° NW 11:02:51 69° NE 11:07:36 10° ESE
Cosmos 1725 Rocket 4.4 10:58:04 10° N 11:04:15 71° E 11:10:23 10° SSE
Cosmos 1666 3.7 11:01:30 10° NW 11:04:36 24° W 11:07:41 10° SW
DEBRIS 3.4 11:05:03 10° WNW 11:08:05 76° SW 11:17:32 10° SE
Cosmos 1544 4.3 11:04:51 10° N 11:08:20 47° E 11:11:47 10° SSE
Cosmos 2100 Rocket 4.2 11:03:16 10° NNW 11:09:25 52° W 11:15:31 10° SSW
METEOR-M 4.4 11:04:19 10° N 11:09:28 50° WNW 11:14:36 10° SSW
Cosmos 990 Rocket 4.5 11:06:26 10° NW 11:11:11 37° W 11:15:57 10° SSW
Cosmos 2322 Rocket 3.0 11:06:44 10° WSW 11:11:42 31° WNW 11:16:43 10° N
Cosmos 1802 Rocket 4.0 11:06:02 10° NNW 11:12:10 67° W 11:18:23 10° S
